Location: Bonningues
(50.7927°N, 2.0150°E)
Time: 21:21:29
(UTC+00:00)

Cosmos 1023 Rocket - Pass Details

Date: 08 August 2020
Orbit: 737 x 772 km, 74.1° (Epoch: 22 September)

Event Time Altitude Azimuth Distance (km) Brightness Sun altitude
Rises 20:48:07 0° 193° (SSW) 3,232 7.4 -11.6°
Reaches altitude 10° 20:50:30 10° 190° (S) 2,311 6.7 -11.9°
Maximum altitude 20:55:42 66° 110° (ESE) 844 4.5 -12.4°
Drops below altitude 10° 21:00:56 10° 29° (NNE) 2,325 7.2 -13.0°
Sets 21:03:20 0° 27° (NNE) 3,253 8.0 -13.3°
